Regional Weather Roundup
Issued by NWS

Home | Current Version | Previous Version | Text Only | Print | Product List | Glossary On
Versions: 1 2 3 4 5 6 7 8 9 10 11 12 13 14 15 16 17 18 19 20 21 22 23 24 25 26 27 28 29 30 31 32 33 34 35 36 37 38 39 40 41 42 43 44 45 46 47 48 49 50
000
ASUS44 KFWD 241603
RWRTX
NORTH TEXAS HOURLY WEATHER ROUNDUP
NATIONAL WEATHER SERVICE FORT WORTH TX
1100 AM CDT SUN JUL 24 2016

NOTE: "FAIR" INDICATES FEW OR NO CLOUDS BELOW 12,000 FEET WITH NO
SIGNIFICANT WEATHER AND/OR OBSTRUCTIONS TO VISIBILITY.

TXZ118-119-241700-
DALLAS/FORT WORTH METROPLEX

CITY           SKY/WX    TMP DP  RH WIND       PRES   REMARKS
DFW AIRPORT    MOSUNNY   91  70  49 S6        29.98R HX  96
DALLAS LOVE    MOSUNNY   91  71  51 VRB5      29.98R HX  97
FTW MEACHAM    SUNNY     94  70  45 VRB5      29.98S HX 100
DAL-EXECUTIVE  SUNNY     91  70  49 CALM      29.98S HX  96
FTW-ALLIANCE   MOSUNNY   92  69  47 SW7       29.98S HX  97
FTW-NAS-JRB    SUNNY     94  67  41 S9        29.98S HX  97
FTW-SPINKS     SUNNY     91  72  52 S5        30.00R HX  98
ARLINGTON      SUNNY     90  69  50 S7        29.98S HX  94
GRAND PRAIRIE  SUNNY     90  70  51 S6        30.00R HX  95
ADDISON        SUNNY     90  72  55 S3        29.99S HX  96
MESQUITE       SUNNY     90  72  55 S8        29.99R HX  96
LANCASTER      SUNNY     92  70  48 SW5       29.99S HX  98
$$

TXZ091>094-102>105-117-120-121-131>134-241700-
NORTH CENTRAL TEXAS

CITY           SKY/WX    TMP DP  RH WIND       PRES   REMARKS
SHRMAN/DENISON SUNNY     93  73  50 SW9       30.00S HX 102
BOWIE          SUNNY     91  73  56 S5        30.00S HX  99
BRIDGEPORT     SUNNY     91  71  51 SW8       30.00S HX  98
DECATUR        SUNNY     90  69  51 SW9       30.00S HX  94
DENTON         SUNNY     91  71  51 SW8       29.98S HX  97
MCKINNEY       SUNNY     91  71  51 SW5       29.98S HX  97
GREENVILLE     SUNNY     91  68  46 SW5       29.99S HX  95
ROCKWALL       SUNNY     89  73  59 W6        29.98S HX  97
TERRELL        SUNNY     90  71  53 S9        29.99R HX  96
WAXAHACHIE     SUNNY     90  73  57 S7        30.00S HX  97
CLEBURNE       SUNNY     90  75  62 VRB7      30.01S HX 100
GRANBURY       SUNNY     94  65  38 SW7       30.00R HX  96
$$

TXZ083>090-098>101-113>116-127>130-139>142-154-155-241700-
WESTERN NORTH TEXAS

CITY           SKY/WX    TMP DP  RH WIND       PRES   REMARKS
WICHITA FALLS  SUNNY     93  71  48 S13       29.97S HX 100
WF-KICKAPOO    SUNNY     93  67  42 SW9G22    29.98S HX  97
VERNON         SUNNY     92  60  34 S7        29.98S HX  91
ABILENE        SUNNY     90  70  51 SW10      30.02R HX  95
ABILENE-DYESS  SUNNY     92  70  48 S10       30.00R HX  98
CISCO          SUNNY     88  70  55 S9G15     30.03S HX  92
BRECKENRIDGE   SUNNY     92  67  42 S10       29.99S HX  96
GRAHAM         SUNNY     92  71  49 S7        29.98S HX  99
MINERAL WELLS  SUNNY     92  70  48 S7        29.98S HX  97
STEPHENVILLE   SUNNY     91  66  44 SW7       30.04R HX  93
COMANCHE       SUNNY     90  68  48 SW8       30.01S HX  94
COLEMAN        SUNNY     90  67  46 S9        30.03R HX  92
$$

TXZ143>147-156>162-174-175-241700-
CENTRAL TEXAS

CITY           SKY/WX    TMP DP  RH WIND       PRES   REMARKS
WACO           SUNNY     90  72  55 SE8       29.98S HX  97
WACO-TSTC      SUNNY     90  72  55 W5        29.98S HX  96
WACO-MCGREGOR  SUNNY     93  73  52 S8        29.98  HX 102
HILLSBORO      SUNNY     88  72  59 SW9       29.99S HX  94
CORSICANA      SUNNY     90  73  57 SW8       30.00S HX  98
MEXIA          SUNNY     88  73  61 S12       29.99S HX  96
HEARNE         PTSUNNY   90  73  58 CALM      29.99S HX  98
CAMERON        SUNNY     90  73  57 S8        29.98S HX  97
TEMPLE         SUNNY     91  73  55 S9        29.99S HX  99
KILLEEN        SUNNY     89  69  52 S6        29.99S HX  93
KILLEEN-SKYLRK SUNNY     88  72  58 VRB7      29.99S HX  94
FORT HOOD      SUNNY     88  71  56 S9        29.97S HX  94
GATESVILLE     SUNNY     90  70  51 SW8       30.01S HX  95
HAMILTON       SUNNY     90  68  48 SW5       30.02S HX  94
LAMPASAS       SUNNY     91  73  55 S5        29.99F HX  99
$$

TXZ095>097-106>112-122>126-135>138-148>153-164>167-241700-
EAST TEXAS

CITY           SKY/WX    TMP DP  RH WIND       PRES   REMARKS
PARIS          SUNNY     90  70  51 W6        30.00S HX  95
SULPHUR SPRNGS SUNNY     92  71  49 W7        30.01S HX  98
MOUNT PLEASANT SUNNY     91  71  52 W6        30.01R HX  97
GILMER         SUNNY     88  74  61 CALM      29.99S HX  96
MINEOLA        SUNNY     91  73  55 E5        30.00S HX 100
TYLER          SUNNY     90  73  57 VRB3      30.00R HX  98
LONGVIEW       CLOUDY    88  75  65 W8        29.99R HX  97
MARSHALL       MOSUNNY   86  74  66 W6        30.01S HX  94
ATHENS         SUNNY     88  73  62 S5        29.99S HX  96
PALESTINE      SUNNY     87  76  68 S7        30.01S HX  97
JACKSONVILLE   PTSUNNY   85  74  68 CALM      30.04R HX  93
HENDERSON      CLOUDY    88  73  60 W5        30.01R HX  96
CENTER         SUNNY     91  73  56 SW3       30.01S HX  98
NACOGDOCHES    CLOUDY   N/A N/A N/A SW5       29.98S
LUFKIN         MOSUNNY   88  75  65 VRB5      29.99F HX  97
$$

SUPPLEMENTAL OBSERVATIONS (CENTRAL)

CITY           SKY/WX    TMP DP  RH WIND       PRES   REMARKS
$$

SUPPLEMENTAL OBSERVATIONS (WEST)

CITY           SKY/WX    TMP DP  RH WIND       PRES   REMARKS
$$

SUPPLEMENTAL OBSERVATIONS (EAST)

CITY           SKY/WX    TMP DP  RH WIND       PRES   REMARKS
$$

SUPPLEMENTAL OBSERVATIONS ARE A COLLECTION OF AUTOMATED INSTRUMENTS
THAT ARE MAINTAINED BY A VARIETY OF FEDERAL AND STATE AGENCIES.
CERTAIN ELEMENTS...SUCH AS HUMIDITY VALUES AND SUSTAINED WIND
SPEEDS...MAY BE APPROXIMATED.





USA.gov is the U.S. government's official web portal to all federal, state and local government web resources and services.